sat.trackr.live / text

‹ back to catalog

RASSVET-3 4

NORAD 68363 · 2026-061D

PAYLOAD ACTIVE UNKNOWN

§ Identity

Operator
Country
CIS
Launch date
2026-03-23
Launch site
PLMSC
Launch vehicle
Mass (kg)
RCS (m²)

External: N2YO · Heavens-Above · Gunter

§ Orbital elements

Epoch: 2026-05-25T03:37:21.785376Z

Period
89.50 min
Inclination
82.2968°
Eccentricity
0.0019875
Mean motion
16.08971499 rev/d
Perigee alt
236.5 km
Apogee alt
262.8 km
Semi-major
6,627.8 km
B*
5.4482e-4
RAAN
37.4155°
Arg perigee
181.6102°
Mean anomaly
178.5120°
Rev number
995

§ Raw data

RASSVET-3 41 68363U 26061D   26145.15094659  .00486833  11666-3  54482-3 0  99992 68363  82.2968  37.4155 0019875 181.6102 178.5120 16.08971499  9958

JSON: /api/v1/satellites/68363 · /tle

For live sub-satellite position, see the globe view (requires WebGL).

§ Visibility from observer

Set your observer location to see the next 7 days of passes ≥ 10°. The values pass through the URL so the page stays shareable.

No JS? Fill the form by hand. The geolocation button needs JavaScript.